Find Starlink 34599

NORAD ID: 64919 Int'l Des: 2025-157 Owner: SPXS Country: US Constellation: starlink operational
LEOCIRCULAR

現在のビュー

3D地球を読み込み中...

Starlink 34599について

説明を読み込み中...

次回通過

Passes for default location (London). Set your location on the main map for personalized predictions.

高度履歴

Loading altitude history...

軌道要素

1 64919U 25157R 26149.86880188 .00025625 00000-0 87348-3 0 9991
2 64919 53.1591 328.5194 0000918 98.2923 261.8182 15.30231852 48558
Epoch: May 29, 2026 • Age: 17 hours

現在のステータス

高度 482.8 km
速度 7.62 km/s
衛星直下点 -25.86°S, 76.62°E
打ち上げ日 Jul 26, 2025
運用期間 0.8 years
タイプ internet

技術仕様

分類 Payload
質量 575.00 kg
乾燥質量 530.00 kg
総質量 575.00 kg
長さ 0.30 m
直径 4.10 m
スパン 29.00 m
形状 Box + pan
製造者 SPXS
バスタイプ Starlink V2MO
フェーズステータス In Orbit
所有者/国 SPXS/US

Most Searched